Location: Chochol
(49.7771°N, 14.9780°E)
Time: 06:30:42
(UTC+00:00)

Cosmos 2016 Rocket - Pass Details

Date: 09 April 2020
Orbit: 946 x 1001 km, 83.0° (Epoch: 29 May)

Event Time Altitude Azimuth Distance (km) Brightness Sun altitude
Rises 22:03:16 0° 353° (N) 3,731 8.2 -30.8°
Reaches altitude 10° 22:05:55 10° 358° (N) 2,773 7.2 -31.0°
Enters shadow 22:11:47 51° 64° (ENE) 1,227 4.5 -31.2°
